Overview Statistics Trail Chart Weather Telemetry Raw packets
 

This is the latest recevied weather packets stored in our database for station/object SP5MRF. If no packets are shown the sender has not sent any weather packets the latest 10 day(s).

<< 60 61 62 63 64 65 66 >>
Time Temp. Humidity Pressure Rain* Wind** Luminosity Snow
1787858460 18.89° C 57% 1019.1 hPa 0 mm - - -
1787857980 18.33° C 58% 1019 hPa 0 mm - - -
1787857500 18.33° C 57% 1019 hPa 0 mm - - -
1787857020 18.33° C 57% 1018.9 hPa 0 mm - - -
1787856540 18.33° C 56% 1018.9 hPa 0 mm - - -
1787856097 18.33° C 55% 1018.8 hPa 0 mm - - -
1787856061 18.33° C 55% 1018.8 hPa 0 mm - - -
1787855580 18.89° C 55% 1018.9 hPa 0 mm - - -
1787854620 19.44° C 53% 1018.8 hPa 0 mm - - -
1787854140 19.44° C 52% 1018.6 hPa 0 mm - - -
1787853660 20° C 51% 1018.6 hPa 0 mm - - -
1787853185 20.56° C 50% 1018.4 hPa 0 mm - - -
1787852701 21.11° C 49% 1018.3 hPa 0 mm - - -
1787852220 21.11° C 49% 1018.3 hPa 0 mm - - -
1787851260 21.67° C 48% 1018.2 hPa 0 mm - - -
1787850781 22.22° C 47% 1018.1 hPa 0 mm - - -
1787850301 22.22° C 47% 1018 hPa 0 mm - - -
1787849820 22.78° C 46% 1017.9 hPa 0 mm - - -
1787848917 22.78° C 46% 1018.2 hPa 0 mm - - -
1787848860 22.78° C 46% 1018.2 hPa 0 mm - - -
1787848381 22.78° C 46% 1018 hPa 0 mm - - -
1787847902 23.33° C 45% 1018 hPa 0 mm - - -
1787846940 23.89° C 44% 1018.2 hPa 0 mm - - -
1787846462 23.89° C 44% 1018.1 hPa 0 mm - - -
1787845023 23.89° C 43% 1018.2 hPa 0 mm - - -

* Rain latest hour (hover to see other rain measurements)
** Current wind speed in m/s (hover to see current wind gust speed)